TimeEST,TemperatureF,Dew PointF,Humidity,Sea Level PressureIn,VisibilityMPH,Wind Direction,Wind SpeedMPH,Gust SpeedMPH,PrecipitationIn,Events,Conditions,WindDirDegrees,DateUTC
12:22 AM,55.4,51.8,88,29.99,9.0,Calm,Calm,-,N/A,,Overcast,0,2012-12-08 05:22:00
12:53 AM,55.0,52.0,89,29.98,9.0,NNW,3.5,-,N/A,,Overcast,330,2012-12-08 05:53:00
1:53 AM,54.0,52.0,93,29.98,8.0,WNW,5.8,-,N/A,,Overcast,290,2012-12-08 06:53:00
2:53 AM,53.1,51.1,93,29.98,5.0,WNW,5.8,-,N/A,,Overcast,290,2012-12-08 07:53:00
3:23 AM,53.6,51.8,94,29.98,5.0,Calm,Calm,-,N/A,,Overcast,0,2012-12-08 08:23:00
3:37 AM,53.6,51.8,94,29.99,5.0,West,3.5,-,N/A,,Overcast,270,2012-12-08 08:37:00
3:53 AM,53.1,52.0,96,29.97,5.0,WNW,4.6,-,N/A,,Overcast,290,2012-12-08 08:53:00
4:06 AM,53.6,51.8,94,29.99,3.0,West,3.5,-,N/A,,Overcast,260,2012-12-08 09:06:00
4:16 AM,53.6,51.8,94,29.99,2.5,West,5.8,-,N/A,,Overcast,260,2012-12-08 09:16:00
4:24 AM,53.6,51.8,94,29.99,4.0,West,3.5,-,N/A,,Overcast,260,2012-12-08 09:24:00
4:45 AM,53.6,51.8,94,29.99,2.5,West,5.8,-,N/A,,Overcast,260,2012-12-08 09:45:00
4:53 AM,53.1,52.0,96,29.98,2.5,West,3.5,-,N/A,,Overcast,260,2012-12-08 09:53:00
5:41 AM,53.6,51.8,94,30.00,4.0,West,8.1,-,N/A,,Overcast,260,2012-12-08 10:41:00
5:53 AM,53.1,52.0,96,29.99,5.0,WSW,4.6,-,N/A,,Overcast,250,2012-12-08 10:53:00
6:38 AM,53.6,51.8,94,30.01,2.5,West,5.8,-,N/A,,Overcast,270,2012-12-08 11:38:00
6:53 AM,53.1,52.0,96,30.00,2.5,WSW,9.2,-,N/A,,Overcast,250,2012-12-08 11:53:00
7:27 AM,51.8,51.8,100,30.02,1.5,West,5.8,-,N/A,,Overcast,260,2012-12-08 12:27:00
7:39 AM,51.8,51.8,100,30.03,0.8,West,5.8,-,N/A,,Overcast,260,2012-12-08 12:39:00
7:53 AM,52.0,52.0,100,30.01,0.5,West,5.8,-,N/A,Fog,Fog,260,2012-12-08 12:53:00
8:10 AM,53.6,51.8,94,30.03,1.2,West,6.9,-,N/A,,Overcast,260,2012-12-08 13:10:00
8:28 AM,53.6,51.8,94,30.04,0.2,SW,8.1,-,N/A,Fog,Fog,220,2012-12-08 13:28:00
8:44 AM,53.6,51.8,94,30.04,0.5,West,6.9,-,N/A,Fog,Fog,260,2012-12-08 13:44:00
8:53 AM,53.1,52.0,96,30.03,1.5,West,6.9,-,N/A,,Overcast,260,2012-12-08 13:53:00
8:57 AM,53.6,51.8,94,30.05,3.0,West,6.9,-,N/A,,Overcast,270,2012-12-08 13:57:00
9:53 AM,54.0,51.1,90,30.05,8.0,WSW,5.8,-,N/A,,Overcast,240,2012-12-08 14:53:00
10:40 AM,53.6,51.8,94,30.06,8.0,SSW,4.6,-,N/A,,Overcast,210,2012-12-08 15:40:00
10:53 AM,55.0,51.1,86,30.05,9.0,West,4.6,-,N/A,,Overcast,260,2012-12-08 15:53:00
11:53 AM,55.9,51.1,84,30.03,9.0,SW,8.1,-,N/A,,Overcast,230,2012-12-08 16:53:00
12:15 PM,57.2,51.8,82,30.03,10.0,WSW,6.9,-,N/A,,Overcast,240,2012-12-08 17:15:00
12:53 PM,60.1,52.0,75,30.00,10.0,WSW,5.8,-,N/A,,Scattered Clouds,240,2012-12-08 17:53:00
1:53 PM,62.1,52.0,70,29.99,10.0,WSW,5.8,-,N/A,,Clear,240,2012-12-08 18:53:00
2:53 PM,64.9,53.1,65,29.99,10.0,SW,9.2,-,N/A,,Clear,220,2012-12-08 19:53:00
3:53 PM,64.0,53.1,67,29.99,10.0,SSW,5.8,-,N/A,,Clear,200,2012-12-08 20:53:00
4:53 PM,62.1,53.1,72,30.01,10.0,SSW,5.8,-,N/A,,Clear,200,2012-12-08 21:53:00
5:53 PM,57.9,53.1,84,30.01,10.0,South,5.8,-,N/A,,Clear,180,2012-12-08 22:53:00
6:53 PM,55.9,53.1,90,30.02,10.0,South,4.6,-,N/A,,Clear,190,2012-12-08 23:53:00
7:53 PM,57.0,54.0,89,30.03,9.0,South,5.8,-,N/A,,Clear,180,2012-12-09 00:53:00
8:53 PM,57.0,54.0,89,30.04,9.0,SSW,6.9,-,N/A,,Clear,200,2012-12-09 01:53:00
9:53 PM,55.9,53.1,90,30.04,9.0,SW,6.9,-,N/A,,Clear,220,2012-12-09 02:53:00
10:53 PM,55.9,54.0,93,30.04,8.0,SSW,8.1,-,N/A,,Clear,200,2012-12-09 03:53:00
11:53 PM,57.0,54.0,89,30.05,8.0,SSW,8.1,-,N/A,,Overcast,210,2012-12-09 04:53:00